STARLINK-32095

decayed
NORAD ID: 59692 Int'l Des: 2024-086 Owner: SPXS Country: US Constellation: starlink
LEOCIRCULAR

关于 STARLINK-32095

正在加载描述...

高度历史

Altitude vs Time

uPlot chart will show altitude changes over time

两行轨道根数

1 59692U 24086L 25104.33335648 .07851965 89135-5 24176-2 0 9992
2 59692 42.9690 82.1567 0010574 235.7889 293.6918 16.25565097 54082
Epoch: Apr 14, 2025 • Age: 3694 hours

当前状态

Position data unavailable
发射日期 May 8, 2024
运行时间 1.3 years
衰减日期 Apr 24, 2025
类型 internet

技术详情

分类 Payload
质量 730.00 kg
干质量 700.00 kg
总质量 730.00 kg
长度 0.30 m
直径 4.10 m
跨度 29.00 m
形状 Box + pan
制造商 SPXS
平台类型 Starlink V2M
阶段状态 Reentered
所有者/国家 SPXS/US

大型星座

Loading constellations...